GW7208 Weather Reports


time (UTC)temp
F
wind
direction
speed
knots
gust
knots
rain 1hr
in
rain 24hr
in
rain mn
in
humidity
%
barometer
mb
20260505092518 64 249 5.2 9.6 0.00 0.00 0.00 65 1010.8
20260505092017 64 243 2.6 5.2 0.00 0.00 0.00 65 1010.8
20260505091518 64 247 3.5 12.2 0.00 0.00 0.00 64 1010.8
20260505091018 64 253 4.3 9.6 0.00 0.00 0.00 64 1010.8
20260505090517 64 256 2.6 6.1 0.00 0.00 0.00 63 1010.8
20260505090017 64 259 3.5 6.1 0.00 0.00 0.00 63 1010.7
20260505085517 63 260 3.5 8.7 0.00 0.00 0.00 66 1010.6
20260505085018 63 265 2.6 6.1 0.00 0.00 0.00 66 1010.7
20260505084517 63 238 2.6 5.2 0.00 0.00 0.00 67 1010.6
20260505084017 63 275 3.5 6.1 0.00 0.00 0.00 67 1010.6
20260505083517 62 265 3.5 6.1 0.00 0.00 0.00 68 1010.5
20260505083018 62 237 1.7 3.5 0.00 0.00 0.00 68 1010.5
20260505082517 62 242 1.7 5.2 0.00 0.00 0.00 69 1010.5
20260505082018 62 275 3.5 7.0 0.00 0.00 0.00 69 1010.6
20260505081520 62 253 2.6 5.2 0.00 0.00 0.00 69 1010.7
20260505081017 62 238 1.7 4.3 0.00 0.00 0.00 69 1010.7
20260505080518 62 239 2.6 5.2 0.00 0.00 0.00 68 1010.8
20260505080017 62 256 3.5 5.2 0.00 0.00 0.00 67 1010.8
20260505075519 62 256 3.5 5.2 0.00 0.00 0.00 67 1010.8
20260505075018 62 246 1.7 4.3 0.00 0.00 0.00 68 1010.8
20260505074518 62 259 0.9 3.5 0.00 0.00 0.00 68 1010.7
20260505074017 62 250 3.5 7.0 0.00 0.00 0.00 68 1010.7
20260505073517 62 233 0.0 1.7 0.00 0.00 0.00 68 1010.7
20260505073018 62 251 2.6 3.5 0.00 0.00 0.00 68 1010.7
20260505072518 62 257 1.7 4.3 0.00 0.00 0.00 68 1010.8
20260505072017 62 255 2.6 6.1 0.00 0.00 0.00 68 1010.8
20260505071517 62 251 2.6 5.2 0.00 0.00 0.00 68 1010.8
20260505071018 62 258 4.3 7.8 0.00 0.00 0.00 68 1010.7
20260505070519 62 256 2.6 6.1 0.00 0.00 0.00 67 1010.8
20260505070017 62 243 3.5 6.1 0.00 0.00 0.00 67 1010.8
20260505065517 62 285 1.7 3.5 0.00 0.00 0.00 67 1010.7
20260505065017 62 265 2.6 7.0 0.00 0.00 0.00 67 1010.7
20260505064517 62 263 3.5 8.7 0.00 0.00 0.00 66 1010.5
20260505064018 63 257 2.6 7.0 0.00 0.00 0.00 66 1010.6
20260505063518 63 236 2.6 4.3 0.00 0.00 0.00 65 1010.5
20260505063020 63 244 3.5 5.2 0.00 0.00 0.00 65 1010.5
20260505062517 63 264 3.5 7.8 0.00 0.00 0.00 64 1010.6
20260505062017 63 242 4.3 6.1 0.00 0.00 0.00 64 1010.7
20260505061518 63 252 3.5 5.2 0.00 0.00 0.00 64 1010.7
20260505061018 63 251 1.7 3.5 0.00 0.00 0.00 63 1010.7
20260505060517 63 237 2.6 6.1 0.00 0.00 0.00 63 1010.7
20260505060018 64 243 3.5 5.2 0.00 0.00 0.00 63 1010.7
20260505055517 64 252 3.5 7.0 0.00 0.00 0.00 62 1010.7
20260505055017 64 251 2.6 5.2 0.00 0.00 0.00 62 1010.7
20260505054517 64 243 3.5 6.1 0.00 0.00 0.00 61 1010.8
20260505054018 64 252 3.5 7.0 0.00 0.00 0.00 61 1010.8
20260505053518 64 255 3.5 7.0 0.00 0.00 0.00 61 1010.8
20260505053019 64 258 1.7 6.1 0.00 0.00 0.00 60 1010.8
20260505052517 64 246 1.7 3.5 0.00 0.00 0.00 60 1010.8
20260505052018 64 240 3.5 7.0 0.00 0.00 0.00 60 1010.8
20260505051518 64 248 2.6 5.2 0.00 0.00 0.00 60 1010.9
20260505051017 64 248 2.6 6.1 0.00 0.00 0.00 60 1010.9
20260505050517 64 222 1.7 3.5 0.00 0.00 0.00 60 1010.9
20260505041517 64 229 1.7 3.5 0.00 0.00 0.00 61 1010.9
20260505041017 64 232 2.6 5.2 0.00 0.00 0.00 61 1010.9
20260505040518 64 231 1.7 4.3 0.00 0.00 0.00 61 1010.9
20260505040018 64 220 1.7 4.3 0.00 0.00 0.00 61 1010.9
20260505035518 64 212 1.7 5.2 0.00 0.00 0.00 61 1010.9
20260505035017 64 211 2.6 3.5 0.00 0.00 0.00 60 1011.0
20260505034517 64 224 2.6 5.2 0.00 0.00 0.00 61 1010.9
20260505034017 64 243 2.6 5.2 0.00 0.00 0.00 61 1010.9
20260505033517 64 230 1.7 3.5 0.00 0.00 0.00 61 1010.9
20260505033017 64 247 1.7 4.3 0.00 0.00 0.00 60 1010.9
20260505032517 64 235 2.6 4.3 0.00 0.00 0.00 60 1010.9
20260505032017 64 245 2.6 5.2 0.00 0.00 0.00 60 1010.9
20260505031517 64 217 0.9 2.6 0.00 0.00 0.00 59 1010.9
20260505031017 64 208 1.7 3.5 0.00 0.00 0.00 58 1010.8
20260505030517 64 238 1.7 4.3 0.00 0.00 0.00 56 1010.9
20260505030017 64 247 1.7 5.2 0.00 0.00 0.00 55 1010.9
20260505025518 64 231 1.7 5.2 0.00 0.00 0.00 55 1011.0
20260505025017 64 262 2.6 4.3 0.00 0.00 0.00 54 1011.1
20260505024518 64 235 1.7 2.6 0.00 0.00 0.00 54 1011.1
20260505024018 65 217 1.7 4.3 0.00 0.00 0.00 54 1011.1
20260505023517 65 236 1.7 3.5 0.00 0.00 0.00 52 1011.1
20260505023018 65 217 2.6 5.2 0.00 0.00 0.00 52 1011.2
20260505022517 65 223 1.7 3.5 0.00 0.00 0.00 51 1011.1
20260505022017 66 230 3.5 7.0 0.00 0.00 0.00 50 1011.1
20260505021517 66 243 1.7 3.5 0.00 0.00 0.00 49 1011.1
20260505021018 66 224 1.7 3.5 0.00 0.00 0.00 49 1011.1
20260505020518 66 241 2.6 5.2 0.00 0.00 0.00 49 1011.1
20260505020017 67 246 0.9 3.5 0.00 0.00 0.00 49 1010.9
20260505015517 67 221 3.5 7.0 0.00 0.00 0.00 48 1010.9
20260505015018 67 217 1.7 4.3 0.00 0.00 0.00 48 1010.8
20260505014518 67 208 1.7 3.5 0.00 0.00 0.00 48 1010.8
20260505014017 67 232 2.6 5.2 0.00 0.00 0.00 47 1010.8
20260505013519 67 225 2.6 4.3 0.00 0.00 0.00 48 1010.9
20260505013018 67 226 2.6 4.3 0.00 0.00 0.00 48 1010.9
20260505012517 67 214 0.9 2.6 0.00 0.00 0.00 48 1010.9
20260505012017 67 248 3.5 6.1 0.00 0.00 0.00 48 1010.8
20260505011518 68 222 1.7 6.1 0.00 0.00 0.00 48 1010.7
20260505011017 68 243 3.5 5.2 0.00 0.00 0.00 47 1010.8
20260505010517 68 247 3.5 7.0 0.00 0.00 0.00 46 1010.7
20260505010017 68 217 3.5 7.8 0.00 0.00 0.00 46 1010.7
20260505005517 69 248 3.5 7.8 0.00 0.00 0.00 45 1010.6
20260505005017 69 235 2.6 5.2 0.00 0.00 0.00 45 1010.5
20260505004518 69 223 2.6 7.8 0.00 0.00 0.00 44 1010.4
20260505004017 69 208 2.6 7.0 0.00 0.00 0.00 44 1010.3
20260505003518 69 231 2.6 6.1 0.00 0.00 0.00 44 1010.3
20260505003017 69 225 2.6 4.3 0.00 0.00 0.00 43 1010.3
20260505002518 70 221 2.6 6.1 0.00 0.00 0.00 43 1010.2
20260505002017 70 239 2.6 5.2 0.00 0.00 0.00 43 1010.2
20260505001517 70 211 1.7 3.5 0.00 0.00 0.00 43 1010.2
20260505001017 70 231 1.7 3.5 0.00 0.00 0.00 43 1010.2
20260505000518 70 204 1.7 3.5 0.00 0.00 0.00 42 1010.1
20260505000018 71 216 3.5 7.8 0.00 0.00 0.00 42 1010.1
20260504235517 71 226 3.5 6.1 0.00 0.00 0.00 41 1010.1
20260504235017 71 232 3.5 7.0 0.00 0.00 0.00 40 1010.0
20260504234518 72 213 2.6 5.2 0.00 0.00 0.00 38 1010.0
20260504234019 72 217 2.6 5.2 0.00 0.00 0.00 37 1009.9
20260504233518 72 235 3.5 5.2 0.00 0.00 0.00 38 1009.8
20260504233017 72 258 3.5 7.8 0.00 0.00 0.00 37 1009.8
20260504232519 72 250 5.2 7.0 0.00 0.00 0.00 37 1009.8
20260504232017 72 245 3.5 6.1 0.00 0.00 0.00 37 1009.8
20260504231518 72 242 3.5 5.2 0.00 0.00 0.00 37 1009.9
20260504231018 73 257 4.3 7.0 0.00 0.00 0.00 36 1009.8
20260504230518 73 252 2.6 3.5 0.00 0.00 0.00 36 1009.8
20260504230017 73 265 3.5 6.1 0.00 0.00 0.00 35 1009.8
20260504225517 73 229 2.6 4.3 0.00 0.00 0.00 35 1009.8
20260504225017 73 194 0.9 1.7 0.00 0.00 0.00 35 1009.8
20260504224517 73 253 1.7 5.2 0.00 0.00 0.00 35 1009.9
20260504224018 73 244 3.5 9.6 0.00 0.00 0.00 35 1009.9
20260504223518 73 224 1.7 4.3 0.00 0.00 0.00 35 1010.0
20260504223017 73 230 1.7 5.2 0.00 0.00 0.00 35 1009.9
20260504222517 73 227 4.3 7.8 0.00 0.00 0.00 35 1009.8
20260504222017 74 250 4.3 7.8 0.00 0.00 0.00 35 1009.9
20260504221517 74 245 5.2 9.6 0.00 0.00 0.00 34 1010.0
20260504221017 74 252 5.2 7.8 0.00 0.00 0.00 34 1010.0
20260504220517 74 236 2.6 5.2 0.00 0.00 0.00 34 1009.9
20260504220018 74 263 2.6 5.2 0.00 0.00 0.00 34 1010.0
20260504215520 74 245 4.3 8.7 0.00 0.00 0.00 33 1010.1
20260504215018 75 243 3.5 5.2 0.00 0.00 0.00 33 1010.0
20260504214518 74 258 0.9 2.6 0.00 0.00 0.00 33 1010.0
20260504214018 74 249 3.5 9.6 0.00 0.00 0.00 33 1010.1
20260504213517 74 271 2.6 4.3 0.00 0.00 0.00 33 1010.1
20260504213018 74 254 4.3 9.6 0.00 0.00 0.00 33 1010.2
20260504212518 74 243 2.6 5.2 0.00 0.00 0.00 33 1010.2
20260504212017 74 246 3.5 7.0 0.00 0.00 0.00 33 1010.2
20260504211519 74 232 5.2 10.4 0.00 0.00 0.00 33 1010.2
20260504211017 74 245 6.1 10.4 0.00 0.00 0.00 33 1010.0
20260504210517 74 259 3.5 6.1 0.00 0.00 0.00 33 1010.1
20260504210017 74 250 4.3 7.8 0.00 0.00 0.00 33 1010.1
20260504205517 74 240 4.3 9.6 0.00 0.00 0.00 33 1010.1
20260504205017 74 252 3.5 6.1 0.00 0.00 0.00 33 1010.2
20260504204517 74 236 2.6 7.0 0.00 0.00 0.00 33 1010.2
20260504204018 74 255 4.3 10.4 0.00 0.00 0.00 33 1010.2
20260504203517 75 251 3.5 7.0 0.00 0.00 0.00 32 1010.3
20260504203017 75 251 5.2 11.3 0.00 0.00 0.00 32 1010.2
20260504202518 74 240 3.5 7.0 0.00 0.00 0.00 32 1010.2
20260504202018 74 253 3.5 7.8 0.00 0.00 0.00 33 1010.2
20260504201517 74 247 2.6 5.2 0.00 0.00 0.00 32 1010.2
20260504201017 74 182 1.7 4.3 0.00 0.00 0.00 33 1010.3
20260504200518 75 257 5.2 8.7 0.00 0.00 0.00 32 1010.3
20260504200017 74 264 2.6 6.1 0.00 0.00 0.00 33 1010.2
20260504195517 74 267 4.3 6.1 0.00 0.00 0.00 33 1010.3
20260504195018 74 240 5.2 8.7 0.00 0.00 0.00 33 1010.3
20260504194519 74 253 3.5 11.3 0.00 0.00 0.00 32 1010.5
20260504194019 74 248 5.2 8.7 0.00 0.00 0.00 32 1010.6
20260504193517 74 230 5.2 7.0 0.00 0.00 0.00 32 1010.6
20260504193018 74 261 3.5 7.8 0.00 0.00 0.00 32 1010.7
20260504192517 73 259 5.2 8.7 0.00 0.00 0.00 32 1010.7
20260504192018 74 233 3.5 4.3 0.00 0.00 0.00 32 1010.8
20260504191517 74 233 3.5 8.7 0.00 0.00 0.00 32 1010.8
20260504191017 74 238 3.5 7.0 0.00 0.00 0.00 32 1010.9
20260504190517 74 234 4.3 7.8 0.00 0.00 0.00 31 1011.0
20260504190018 74 247 3.5 6.1 0.00 0.00 0.00 32 1011.0
20260504185518 74 223 6.1 8.7 0.00 0.00 0.00 31 1011.2
20260504185018 73 272 2.6 4.3 0.00 0.00 0.00 32 1011.2
20260504184518 74 246 6.1 8.7 0.00 0.00 0.00 32 1011.3
20260504184017 74 200 3.5 6.1 0.00 0.00 0.00 31 1011.4
20260504183518 74 264 3.5 6.1 0.00 0.00 0.00 31 1011.4
20260504183017 73 241 5.2 10.4 0.00 0.00 0.00 31 1011.4
20260504182519 73 244 4.3 9.6 0.00 0.00 0.00 32 1011.4
20260504182021 73 318 1.7 5.2 0.00 0.00 0.00 32 1011.5
20260504181518 72 237 5.2 7.8 0.00 0.00 0.00 32 1011.7
20260504181017 72 243 3.5 7.0 0.00 0.00 0.00 32 1011.7
20260504180517 73 246 4.3 8.7 0.00 0.00 0.00 31 1011.8
20260504180018 72 226 1.7 4.3 0.00 0.00 0.00 32 1011.9
20260504175517 72 244 6.1 8.7 0.00 0.00 0.00 32 1011.9
20260504175018 73 245 6.1 9.6 0.00 0.00 0.00 31 1012.0
20260504174517 72 265 2.6 4.3 0.00 0.00 0.00 31 1012.1
20260504174017 72 214 1.7 4.3 0.00 0.00 0.00 32 1012.1
20260504173517 72 253 5.2 9.6 0.00 0.00 0.00 32 1012.2
20260504173017 72 251 1.7 4.3 0.00 0.00 0.00 32 1012.3
20260504172518 72 249 5.2 9.6 0.00 0.00 0.00 32 1012.4
20260504172017 72 208 1.7 3.5 0.00 0.00 0.00 32 1012.4
20260504171518 72 240 3.5 6.1 0.00 0.00 0.00 33 1012.4
20260504171018 71 217 4.3 9.6 0.00 0.00 0.00 33 1012.4
20260504170518 72 249 5.2 10.4 0.00 0.00 0.00 33 1012.5
20260504151019 67 188 1.7 5.2 0.00 0.00 0.00 41 1014.0
20260504150517 67 243 2.6 5.2 0.00 0.00 0.00 41 1014.0
20260504141017 64 218 2.6 4.3 0.00 0.00 0.00 50 1014.1
20260504140519 64 246 3.5 7.0 0.00 0.00 0.00 50 1014.2
20260504130517 59 249 5.2 9.6 0.00 0.00 0.00 60 1014.7
20260504110518 52 268 0.9 1.7 0.00 0.00 0.00 74 1015.1
20260504100518 51 257 3.5 5.2 0.00 0.00 0.00 71 1015.2